DL6MB-14 Weather Reports


time (UTC)temp
F
wind
direction
speed
knots
gust
knots
rain 1hr
in
rain 24hr
in
rain mn
in
humidity
%
barometer
mb
20260502163525 73 174 2.6 7.8 0.00 0.00 0.00 56 1014.1
20260502162522 74 203 2.6 8.7 0.00 0.00 0.00 52 1014.2
20260502161539 75 232 2.6 6.1 0.00 0.00 0.00 49 1014.3
20260502160535 76 206 1.7 6.1 0.00 0.00 0.00 50 1014.4
20260502151516 76 236 4.3 7.8 0.00 0.00 0.00 47 1014.9
20260502150533 76 238 3.5 7.8 0.00 0.00 0.00 48 1015.0
20260502130531 76 234 0.9 5.2 0.00 0.00 0.00 48 1016.1
20260502123519 76 235 5.2 8.7 0.00 0.00 0.00 48 1016.5
20260502122637 76 241 1.7 5.2 0.00 0.00 0.00 48 1016.6
20260502121531 77 233 2.6 7.8 0.00 0.00 0.00 47 1016.7
20260502120526 75 229 2.6 6.1 0.00 0.00 0.00 48 1016.7
20260502115522 75 230 3.5 6.1 0.00 0.00 0.00 48 1016.8
20260502114518 74 241 2.6 7.8 0.00 0.00 0.00 49 1017.0
20260502113554 73 234 3.5 7.0 0.00 0.00 0.00 49 1017.1
20260502112553 73 254 3.5 7.0 0.00 0.00 0.00 50 1017.1
20260502111528 72 236 4.3 8.7 0.00 0.00 0.00 49 1017.2
20260502110544 73 231 0.9 5.2 0.00 0.00 0.00 48 1017.2
20260502105521 72 240 2.6 7.0 0.00 0.00 0.00 48 1017.3
20260502104557 72 234 2.6 6.1 0.00 0.00 0.00 48 1017.4
20260502103532 72 239 5.2 9.6 0.00 0.00 0.00 48 1017.5
20260502102528 72 241 3.5 7.0 0.00 0.00 0.00 46 1017.6
20260502101525 71 239 2.6 7.0 0.00 0.00 0.00 46 1017.7
20260502100521 71 235 3.5 7.8 0.00 0.00 0.00 46 1017.8
20260502091523 72 232 1.7 6.1 0.00 0.00 0.00 44 1017.9
20260502090539 70 230 3.5 9.6 0.00 0.00 0.00 45 1018.0
20260502071536 67 7 0.9 5.2 0.00 0.00 0.00 43 1018.1
20260502070533 66 14 1.7 3.5 0.00 0.00 0.00 44 1018.0
20260502065529 65 7 0.9 1.7 0.00 0.00 0.00 47 1018.2
20260502064525 65 16 0.9 2.6 0.00 0.00 0.00 48 1018.2
20260502063520 64 6 0.9 5.2 0.00 0.00 0.00 49 1018.3
20260502062517 63 25 0.9 6.1 0.00 0.00 0.00 49 1018.2
20260502061534 63 19 0.9 3.5 0.00 0.00 0.00 50 1018.2
20260502060529 62 29 0.9 3.5 0.00 0.00 0.00 51 1018.1
20260502055526 61 23 0.9 2.6 0.00 0.00 0.00 52 1018.3
20260502054522 60 26 0.9 1.7 0.00 0.00 0.00 53 1018.2
20260502053519 59 25 0.9 3.5 0.00 0.00 0.00 54 1018.2
20260502052515 58 22 0.0 1.7 0.00 0.00 0.00 56 1018.2
20260502051553 57 24 0.0 1.7 0.00 0.00 0.00 57 1018.2
20260502050548 55 0.0 0.0 0.00 0.00 0.00 59 1018.2
20260502045524 54 22 0.0 1.7 0.00 0.00 0.00 60 1018.2
20260502044521 52 0.0 0.0 0.00 0.00 0.00 64 1018.2
20260502043518 52 21 0.0 1.7 0.00 0.00 0.00 64 1018.3
20260502042534 52 21 0.0 0.9 0.00 0.00 0.00 65 1018.4
20260502041530 52 21 0.0 1.7 0.00 0.00 0.00 65 1018.5
20260502040528 52 0.0 0.0 0.00 0.00 0.00 65 1018.5
20260502035524 52 0.0 0.0 0.00 0.00 0.00 64 1018.5
20260502034521 52 21 0.0 0.9 0.00 0.00 0.00 64 1018.7
20260502033517 52 0.0 0.0 0.00 0.00 0.00 63 1018.7
20260502032534 53 21 0.0 0.9 0.00 0.00 0.00 62 1018.8
20260502031530 53 21 0.0 0.9 0.00 0.00 0.00 62 1018.7
20260502030527 53 20 0.0 0.9 0.00 0.00 0.00 62 1018.8
20260502025524 53 23 0.0 1.7 0.00 0.00 0.00 61 1018.9
20260502024521 53 23 0.9 1.7 0.00 0.00 0.00 61 1018.9
20260502023537 54 0.0 0.0 0.00 0.00 0.00 61 1018.9
20260502022554 54 0.0 0.0 0.00 0.00 0.00 60 1019.0
20260502021531 55 20 0.9 1.7 0.00 0.00 0.00 59 1019.1
20260502020527 55 21 0.0 0.9 0.00 0.00 0.00 58 1019.2
20260502015524 55 24 0.0 1.7 0.00 0.00 0.00 58 1019.3
20260502014520 55 21 0.0 0.9 0.00 0.00 0.00 57 1019.4
20260502013517 55 0.0 0.0 0.00 0.00 0.00 57 1019.5
20260502012533 56 0.0 0.0 0.00 0.00 0.00 56 1019.6
20260502011549 56 20 0.0 0.9 0.00 0.00 0.00 55 1019.7
20260502010525 57 20 0.0 1.7 0.00 0.00 0.00 54 1019.8
20260502005522 57 23 0.0 0.9 0.00 0.00 0.00 54 1019.9
20260502004518 58 24 0.9 1.7 0.00 0.00 0.00 52 1020.0
20260502003535 57 25 0.9 1.7 0.00 0.00 0.00 52 1020.0
20260502002531 58 26 0.9 1.7 0.00 0.00 0.00 52 1020.1
20260502001528 58 30 0.9 1.7 0.00 0.00 0.00 51 1020.2
20260502000524 58 87 0.0 0.9 0.00 0.00 0.00 51 1020.3
20260501235520 59 159 0.0 0.9 0.00 0.00 0.00 50 1020.3
20260501234537 59 138 0.9 1.7 0.00 0.00 0.00 49 1020.4
20260501233534 59 134 0.9 1.7 0.00 0.00 0.00 48 1020.4
20260501232530 60 139 0.0 1.7 0.00 0.00 0.00 48 1020.5
20260501231526 60 126 0.9 1.7 0.00 0.00 0.00 47 1020.4
20260501230523 60 133 0.0 1.7 0.00 0.00 0.00 46 1020.5
20260501225519 61 132 0.9 1.7 0.00 0.00 0.00 46 1020.5
20260501224516 61 123 0.9 1.7 0.00 0.00 0.00 46 1020.5
20260501223532 61 146 0.0 1.7 0.00 0.00 0.00 45 1020.6
20260501222529 61 150 0.9 2.6 0.00 0.00 0.00 45 1020.7
20260501221525 62 153 0.0 2.6 0.00 0.00 0.00 45 1020.8
20260501220522 62 131 0.0 0.9 0.00 0.00 0.00 45 1020.8
20260501215539 62 121 0.0 1.7 0.00 0.00 0.00 44 1020.8
20260501214535 62 136 0.9 1.7 0.00 0.00 0.00 43 1020.8
20260501213531 63 135 0.9 1.7 0.00 0.00 0.00 43 1020.8
20260501212528 63 0.0 0.0 0.00 0.00 0.00 42 1020.8
20260501211545 63 142 0.0 0.9 0.00 0.00 0.00 41 1020.8
20260501210521 64 172 0.0 0.9 0.00 0.00 0.00 40 1020.9
20260501205517 64 151 0.9 1.7 0.00 0.00 0.00 39 1021.0
20260501204553 64 150 0.9 2.6 0.00 0.00 0.00 40 1021.1
20260501203529 64 171 0.0 1.7 0.00 0.00 0.00 40 1021.0
20260501202525 64 152 0.0 1.7 0.00 0.00 0.00 41 1021.1
20260501201521 64 0.0 0.0 0.00 0.00 0.00 41 1021.1
20260501200518 65 0.0 0.0 0.00 0.00 0.00 40 1021.1
20260501195554 66 0.0 0.0 0.00 0.00 0.00 39 1021.1
20260501194552 67 0.0 0.0 0.00 0.00 0.00 37 1020.9
20260501193528 67 0.0 0.0 0.00 0.00 0.00 36 1021.0
20260501192525 68 157 0.0 0.9 0.00 0.00 0.00 35 1021.0
20260501191521 69 170 0.9 1.7 0.00 0.00 0.00 34 1021.0
20260501190538 70 162 0.0 1.7 0.00 0.00 0.00 33 1021.0
20260501185534 70 167 0.9 1.7 0.00 0.00 0.00 33 1021.0
20260501184530 71 174 0.0 1.7 0.00 0.00 0.00 32 1021.0
20260501183527 72 169 0.9 1.7 0.00 0.00 0.00 31 1020.9
20260501182524 73 188 1.7 3.5 0.00 0.00 0.00 30 1020.8
20260501181520 73 182 0.9 3.5 0.00 0.00 0.00 30 1020.8
20260501180517 75 185 0.9 3.5 0.00 0.00 0.00 28 1020.9
20260501175533 75 175 1.7 5.2 0.00 0.00 0.00 28 1020.7
20260501174530 75 176 1.7 6.1 0.00 0.00 0.00 27 1020.8
20260501173546 76 191 1.7 6.1 0.00 0.00 0.00 27 1020.7
20260501172522 76 164 2.6 7.0 0.00 0.00 0.00 27 1020.8
20260501171519 76 185 1.7 7.8 0.00 0.00 0.00 27 1020.7
20260501170516 76 145 2.6 6.1 0.00 0.00 0.00 27 1020.8
20260501165532 78 162 0.9 3.5 0.00 0.00 0.00 26 1020.8
20260501164548 78 188 0.9 3.5 0.00 0.00 0.00 26 1020.9